Tracking 19847 objects as of 16-Sep-2019
HD Live streaming from Space Station
objects crossing your sky now

COSMOS 832

Track COSMOS 832 now!
10-day predictions
COSMOS 832 is classified as:


NORAD ID: 8896
Int'l Code: 1976-054H
Perigee: 1,488.6 km
Apogee: 1,528.0 km
Inclination: 74.0 °
Period: 116.0 minutes
Semi major axis: 7879 km
RCS: 0.7035 m2 (medium)
Launch date: June 15, 1976
Source: Commonwealth of Independent States (former USSR) (CIS)
Launch site: PLESETSK MISSILE AND SPACE COMPLEX (PKMTR)
aabbcc
Your satellite tracking list
Your tracking list is empty




NASA's NSSDC Master Catalog

Two Line Element Set (TLE):
1  8896U 76054H   19258.61183108  .00000003  00000-0  13591-3 0  9991
2  8896  74.0003 306.3294 0024974 329.3629 145.5448 12.41284649960023
Source of the keplerian elements: AFSPC